MAS783 VTBS-WMKK

Flight info

Callsign MAS783
Flight time 1h 53m
Altitude 41000
Route BUT1G BUT Y11 PASVA Y514 EMPUR/N0457F400 G466 PULIP PULIP1K
Aircraft A333/H-SDE3GHIJ2J3J5M1RVWXY/LB2D1

Departure

Time 2026-05-05 21:14
Airport Suvarnabhumi Airport (VTBS)

Arrival

Time 2026-05-05 23:07
Airport Kuala Lumpur International Airport (WMKK)
Time Latitude Longitude Altitude Speed Heading
2026-05-05 20:47 13.69228 100.74425 17 ft 0 kts 14°
2026-05-05 21:03 13.69215 100.74422 18 ft 4 kts 12°
2026-05-05 21:04 13.69188 100.74417 20 ft 4 kts
2026-05-05 21:04 13.69162 100.74418 18 ft 4 kts 341°
2026-05-05 21:04 13.69144 100.74431 19 ft 2 kts 287°
2026-05-05 21:04 13.69136 100.74452 21 ft 4 kts 307°
2026-05-05 21:05 13.69117 100.74469 19 ft 4 kts 341°
2026-05-05 21:05 13.69091 100.74474 19 ft 4 kts
2026-05-05 21:05 13.69072 100.74471 20 ft 0 kts 13°
2026-05-05 21:07 13.69077 100.74473 20 ft 3 kts 13°
2026-05-05 21:07 13.69115 100.74468 19 ft 8 kts 334°
2026-05-05 21:08 13.69148 100.74411 19 ft 12 kts 287°
2026-05-05 21:08 13.69171 100.74325 17 ft 13 kts 285°
2026-05-05 21:08 13.69196 100.74236 17 ft 11 kts 301°
2026-05-05 21:08 13.69268 100.74221 17 ft 12 kts 12°
2026-05-05 21:09 13.69352 100.74243 16 ft 13 kts 14°
2026-05-05 21:09 13.69449 100.74268 16 ft 15 kts 14°
2026-05-05 21:09 13.69556 100.74296 17 ft 16 kts 14°
2026-05-05 21:09 13.69670 100.74327 17 ft 17 kts 14°
2026-05-05 21:10 13.69790 100.74358 16 ft 18 kts 14°
2026-05-05 21:10 13.69916 100.74391 17 ft 19 kts 14°
2026-05-05 21:10 13.70045 100.74424 17 ft 19 kts 14°
2026-05-05 21:10 13.70176 100.74459 17 ft 17 kts 14°
2026-05-05 21:11 13.70248 100.74478 17 ft 1 kts 14°
2026-05-05 21:11 13.70249 100.74478 17 ft 0 kts 14°
2026-05-05 21:11 13.70258 100.74481 17 ft 5 kts 14°
2026-05-05 21:12 13.70321 100.74465 17 ft 14 kts 317°
2026-05-05 21:12 13.70345 100.74366 18 ft 13 kts 265°
2026-05-05 21:12 13.70314 100.74307 18 ft 9 kts 207°
2026-05-05 21:12 13.70279 100.74296 18 ft 5 kts 194°
2026-05-05 21:13 13.70086 100.74245 18 ft 60 kts 194°
2026-05-05 21:13 13.69484 100.74087 14 ft 116 kts 194°
2026-05-05 21:13 13.68556 100.73843 25 ft 160 kts 194°
2026-05-05 21:13 13.67446 100.73560 517 ft 164 kts 194°
2026-05-05 21:14 13.66341 100.73283 1175 ft 163 kts 194°
2026-05-05 21:14 13.65241 100.73000 1760 ft 164 kts 195°
2026-05-05 21:14 13.64128 100.72702 2284 ft 165 kts 195°
2026-05-05 21:14 13.63016 100.72402 2827 ft 166 kts 195°
2026-05-05 21:15 13.61875 100.72096 3241 ft 177 kts 194°
2026-05-05 21:15 13.60620 100.71764 3477 ft 199 kts 194°
2026-05-05 21:15 13.59202 100.71397 3729 ft 223 kts 194°
2026-05-05 21:15 13.57600 100.70985 3994 ft 250 kts 194°
2026-05-05 21:16 13.55862 100.70521 4502 ft 264 kts 194°
2026-05-05 21:16 13.54056 100.70038 5209 ft 270 kts 194°
2026-05-05 21:16 13.52203 100.69628 5975 ft 275 kts 187°
2026-05-05 21:16 13.50286 100.69577 6720 ft 278 kts 173°
2026-05-05 21:17 13.48368 100.69917 7492 ft 281 kts 167°
2026-05-05 21:17 13.46454 100.70398 8287 ft 285 kts 165°
2026-05-05 21:17 13.44527 100.70929 9098 ft 289 kts 164°
2026-05-05 21:17 13.42575 100.71485 9904 ft 292 kts 163°
2026-05-05 21:18 13.40570 100.72063 10362 ft 309 kts 163°
2026-05-05 21:18 13.38434 100.72684 10676 ft 329 kts 163°
2026-05-05 21:18 13.36182 100.73340 11102 ft 342 kts 163°
2026-05-05 21:18 13.33897 100.74006 11699 ft 348 kts 163°
2026-05-05 21:19 13.31550 100.74691 12351 ft 353 kts 164°
2026-05-05 21:19 13.29170 100.75385 13015 ft 357 kts 164°
2026-05-05 21:19 13.26768 100.76086 13670 ft 361 kts 164°
2026-05-05 21:19 13.24334 100.76796 14262 ft 364 kts 164°
2026-05-05 21:20 13.21886 100.77511 14860 ft 368 kts 164°
2026-05-05 21:20 13.19412 100.78233 15427 ft 372 kts 164°
2026-05-05 21:20 13.16913 100.78962 15989 ft 375 kts 164°
2026-05-05 21:20 13.14382 100.79700 16550 ft 378 kts 164°
2026-05-05 21:21 13.11836 100.80442 17108 ft 382 kts 164°
2026-05-05 21:21 13.09268 100.81199 17648 ft 385 kts 162°
2026-05-05 21:21 13.06742 100.82155 18169 ft 388 kts 157°
2026-05-05 21:21 13.04251 100.83246 18617 ft 391 kts 156°
2026-05-05 21:22 13.01746 100.84371 19073 ft 394 kts 156°
2026-05-05 21:22 12.99223 100.85505 19526 ft 397 kts 156°
2026-05-05 21:22 12.96721 100.86627 19968 ft 399 kts 156°
2026-05-05 21:22 12.94168 100.87770 20419 ft 402 kts 156°
2026-05-05 21:23 12.91598 100.88919 20863 ft 404 kts 156°
2026-05-05 21:23 12.89010 100.90076 21305 ft 407 kts 156°
2026-05-05 21:23 12.86404 100.91239 21752 ft 409 kts 156°
2026-05-05 21:23 12.83788 100.92407 22176 ft 412 kts 156°
2026-05-05 21:24 12.81148 100.93586 22603 ft 414 kts 156°
2026-05-05 21:24 12.78491 100.94770 23021 ft 417 kts 156°
2026-05-05 21:24 12.75819 100.95962 23437 ft 419 kts 156°
2026-05-05 21:24 12.73169 100.97144 23764 ft 422 kts 156°
2026-05-05 21:25 12.70462 100.98351 24105 ft 424 kts 156°
2026-05-05 21:25 12.67741 100.99548 24439 ft 427 kts 158°
2026-05-05 21:25 12.64935 101.00562 24780 ft 429 kts 162°
2026-05-05 21:25 12.62070 101.01455 25112 ft 431 kts 163°
2026-05-05 21:26 12.59171 101.02285 25449 ft 433 kts 165°
2026-05-05 21:26 12.56250 101.03092 25775 ft 436 kts 165°
2026-05-05 21:26 12.53315 101.03898 26094 ft 438 kts 165°
2026-05-05 21:26 12.50362 101.04715 26418 ft 440 kts 165°
2026-05-05 21:27 12.47397 101.05543 26737 ft 442 kts 165°
2026-05-05 21:27 12.44423 101.06382 27075 ft 444 kts 165°
2026-05-05 21:27 12.41474 101.07218 27385 ft 446 kts 165°
2026-05-05 21:27 12.38465 101.08042 27677 ft 448 kts 167°
2026-05-05 21:28 12.35381 101.08533 27992 ft 450 kts 175°
2026-05-05 21:28 12.32240 101.08689 28279 ft 453 kts 178°
2026-05-05 21:28 12.29080 101.08738 28595 ft 454 kts 180°
2026-05-05 21:28 12.25910 101.08727 28887 ft 456 kts 180°
2026-05-05 21:29 12.22728 101.08688 29160 ft 459 kts 181°
2026-05-05 21:29 12.19525 101.08642 29439 ft 461 kts 181°
2026-05-05 21:29 12.16310 101.08598 29747 ft 462 kts 181°
2026-05-05 21:29 12.13094 101.08560 30068 ft 462 kts 181°
2026-05-05 21:30 12.09871 101.08528 30307 ft 464 kts 181°
2026-05-05 21:30 12.07731 101.08509 30467 ft 464 kts 181°
2026-05-05 21:30 12.03429 101.08475 30751 ft 467 kts 181°
2026-05-05 21:30 12.00172 101.08450 30981 ft 468 kts 181°
2026-05-05 21:31 11.96910 101.08426 31186 ft 470 kts 181°
2026-05-05 21:31 11.94689 101.08409 31314 ft 472 kts 181°
2026-05-05 21:31 11.91400 101.08384 31536 ft 473 kts 181°
2026-05-05 21:31 11.88101 101.08359 31729 ft 476 kts 181°
2026-05-05 21:32 11.84828 101.08334 31941 ft 477 kts 181°
2026-05-05 21:32 11.81503 101.08309 32212 ft 477 kts 181°
2026-05-05 21:32 11.78196 101.08284 32637 ft 473 kts 180°
2026-05-05 21:32 11.74917 101.08259 33025 ft 471 kts 180°
2026-05-05 21:33 11.71635 101.08234 33316 ft 470 kts 180°
2026-05-05 21:33 11.68371 101.08209 33622 ft 469 kts 181°
2026-05-05 21:33 11.65104 101.08260 33918 ft 468 kts 176°
2026-05-05 21:33 11.61871 101.08657 34175 ft 468 kts 172°
2026-05-05 21:34 11.58652 101.09175 34430 ft 468 kts 171°
2026-05-05 21:34 11.55444 101.09745 34672 ft 468 kts 170°
2026-05-05 21:34 11.52241 101.10342 34903 ft 468 kts 170°
2026-05-05 21:34 11.49081 101.10942 35148 ft 467 kts 170°
2026-05-05 21:35 11.45887 101.11549 35399 ft 467 kts 170°
2026-05-05 21:35 11.42694 101.12153 35643 ft 466 kts 170°
2026-05-05 21:35 11.39505 101.12752 35868 ft 466 kts 170°
2026-05-05 21:35 11.36318 101.13347 36109 ft 465 kts 170°
2026-05-05 21:36 11.33135 101.13939 36331 ft 465 kts 170°
2026-05-05 21:36 11.29941 101.14531 36554 ft 465 kts 170°
2026-05-05 21:36 11.26759 101.15121 36781 ft 465 kts 170°
2026-05-05 21:36 11.23577 101.15710 37008 ft 464 kts 170°
2026-05-05 21:37 11.20401 101.16299 37213 ft 464 kts 170°
2026-05-05 21:37 11.17220 101.16888 37424 ft 464 kts 170°
2026-05-05 21:37 11.14044 101.17476 37637 ft 464 kts 170°
2026-05-05 21:37 11.10867 101.18065 37854 ft 463 kts 170°
2026-05-05 21:38 11.07697 101.18652 38035 ft 464 kts 170°
2026-05-05 21:38 11.04522 101.19240 38219 ft 464 kts 170°
2026-05-05 21:38 11.01385 101.19821 38401 ft 464 kts 170°
2026-05-05 21:38 10.98209 101.20409 38579 ft 464 kts 170°
2026-05-05 21:39 10.95036 101.20996 38733 ft 463 kts 170°
2026-05-05 21:39 10.91863 101.21584 38892 ft 463 kts 170°
2026-05-05 21:39 10.88691 101.22170 39042 ft 463 kts 170°
2026-05-05 21:39 10.85522 101.22757 39202 ft 463 kts 170°
2026-05-05 21:40 10.82352 101.23343 39340 ft 463 kts 170°
2026-05-05 21:40 10.79186 101.23928 39491 ft 463 kts 170°
2026-05-05 21:40 10.76019 101.24513 39638 ft 462 kts 170°
2026-05-05 21:40 10.72855 101.25098 39798 ft 462 kts 170°
2026-05-05 21:41 10.69697 101.25682 39985 ft 460 kts 170°
2026-05-05 21:41 10.66551 101.26263 40150 ft 459 kts 170°
2026-05-05 21:41 10.63401 101.26845 40272 ft 460 kts 171°
2026-05-05 21:41 10.60255 101.27426 40387 ft 460 kts 170°
2026-05-05 21:42 10.57104 101.28007 40542 ft 459 kts 170°
2026-05-05 21:42 10.53957 101.28588 40607 ft 460 kts 170°
2026-05-05 21:42 10.50802 101.29170 40723 ft 460 kts 170°
2026-05-05 21:42 10.47689 101.29745 40826 ft 461 kts 170°
2026-05-05 21:43 10.41344 101.30915 40840 ft 463 kts 170°
2026-05-05 21:43 10.35003 101.32085 40840 ft 462 kts 169°
2026-05-05 21:44 10.28689 101.33254 40841 ft 461 kts 169°
2026-05-05 21:44 10.22373 101.34424 40842 ft 461 kts 169°
2026-05-05 21:45 10.16105 101.35586 40843 ft 461 kts 169°
2026-05-05 21:45 10.09790 101.36755 40844 ft 461 kts 169°
2026-05-05 21:46 10.03470 101.37924 40842 ft 461 kts 169°
2026-05-05 21:46 9.97159 101.39091 40841 ft 462 kts 169°
2026-05-05 21:47 9.90826 101.40262 40842 ft 462 kts 169°
2026-05-05 21:47 9.84484 101.41434 40841 ft 462 kts 169°
2026-05-05 21:48 9.78151 101.42604 40841 ft 463 kts 169°
2026-05-05 21:48 9.71801 101.43776 40840 ft 463 kts 169°
2026-05-05 21:49 9.65451 101.44949 40840 ft 464 kts 169°
2026-05-05 21:49 9.59144 101.46112 40840 ft 464 kts 169°
2026-05-05 21:50 9.52785 101.47285 40841 ft 464 kts 169°
2026-05-05 21:50 9.46431 101.48457 40838 ft 464 kts 169°
2026-05-05 21:51 9.40070 101.49629 40839 ft 465 kts 169°
2026-05-05 21:51 9.33707 101.50801 40835 ft 465 kts 169°
2026-05-05 21:52 9.24149 101.52562 40835 ft 465 kts 169°
2026-05-05 21:53 9.17766 101.53737 40837 ft 467 kts 169°
2026-05-05 21:53 9.11371 101.54913 40835 ft 467 kts 169°
2026-05-05 21:54 9.05024 101.56081 40834 ft 467 kts 169°
2026-05-05 21:54 8.98626 101.57257 40835 ft 467 kts 169°
2026-05-05 21:55 8.92222 101.58436 40834 ft 467 kts 169°
2026-05-05 21:55 8.85862 101.59606 40835 ft 467 kts 169°
2026-05-05 21:56 8.79460 101.60784 40833 ft 468 kts 169°
2026-05-05 21:56 8.73057 101.61962 40829 ft 468 kts 169°
2026-05-05 21:57 8.66644 101.63141 40830 ft 468 kts 169°
2026-05-05 21:57 8.60272 101.64312 40829 ft 468 kts 169°
2026-05-05 21:58 8.53869 101.65488 40831 ft 468 kts 169°
2026-05-05 21:58 8.47472 101.66663 40828 ft 466 kts 168°
2026-05-05 21:59 8.41091 101.67835 40829 ft 466 kts 168°
2026-05-05 21:59 8.34722 101.69004 40831 ft 465 kts 168°
2026-05-05 22:00 8.28358 101.70172 40829 ft 465 kts 168°
2026-05-05 22:00 8.21994 101.71339 40831 ft 465 kts 168°
2026-05-05 22:01 8.15628 101.72507 40830 ft 465 kts 169°
2026-05-05 22:01 8.09273 101.73672 40828 ft 464 kts 169°
2026-05-05 22:02 8.02919 101.74838 40828 ft 464 kts 169°
2026-05-05 22:02 7.96611 101.76004 40829 ft 464 kts 168°
2026-05-05 22:03 7.90259 101.77182 40830 ft 464 kts 168°
2026-05-05 22:03 7.83894 101.78362 40826 ft 464 kts 168°
2026-05-05 22:04 7.77551 101.79536 40826 ft 464 kts 168°
2026-05-05 22:04 7.71203 101.80711 40829 ft 464 kts 168°
2026-05-05 22:05 7.64848 101.81887 40828 ft 464 kts 168°
2026-05-05 22:05 7.58542 101.83053 40827 ft 464 kts 168°
2026-05-05 22:06 7.52179 101.84229 40831 ft 464 kts 168°
2026-05-05 22:06 7.45829 101.85403 40827 ft 464 kts 168°
2026-05-05 22:07 7.39479 101.86576 40831 ft 464 kts 168°
2026-05-05 22:07 7.33129 101.87749 40831 ft 464 kts 168°
2026-05-05 22:08 7.26777 101.88922 40830 ft 464 kts 168°
2026-05-05 22:08 7.20423 101.90095 40831 ft 463 kts 168°
2026-05-05 22:09 7.14123 101.91258 40832 ft 463 kts 168°
2026-05-05 22:09 7.07774 101.92430 40830 ft 464 kts 168°
2026-05-05 22:10 7.01423 101.93601 40831 ft 463 kts 168°
2026-05-05 22:10 6.95090 101.94769 40828 ft 463 kts 168°
2026-05-05 22:11 6.88753 101.95937 40826 ft 462 kts 168°
2026-05-05 22:11 6.82420 101.97104 40827 ft 462 kts 168°
2026-05-05 22:12 6.76090 101.98271 40829 ft 463 kts 168°
2026-05-05 22:12 6.69805 101.99429 40831 ft 462 kts 168°
2026-05-05 22:13 6.63469 102.00595 40833 ft 462 kts 168°
2026-05-05 22:13 6.57140 102.01761 40836 ft 462 kts 168°
2026-05-05 22:14 6.50815 102.02925 40836 ft 462 kts 168°
2026-05-05 22:14 6.44492 102.04089 40834 ft 462 kts 168°
2026-05-05 22:15 6.38165 102.05252 40830 ft 461 kts 168°
2026-05-05 22:15 6.31848 102.06414 40827 ft 461 kts 168°
2026-05-05 22:16 6.25583 102.07705 40830 ft 458 kts 163°
2026-05-05 22:16 6.19481 102.09579 40828 ft 458 kts 161°
2026-05-05 22:17 6.13468 102.11553 40829 ft 458 kts 161°
2026-05-05 22:17 6.07412 102.13564 40838 ft 458 kts 161°
2026-05-05 22:18 6.01353 102.15567 40838 ft 458 kts 161°
2026-05-05 22:18 5.95302 102.17559 40836 ft 458 kts 161°
2026-05-05 22:19 5.89246 102.19549 40836 ft 458 kts 161°
2026-05-05 22:19 5.83216 102.21530 40835 ft 458 kts 161°
2026-05-05 22:20 5.77121 102.23364 40839 ft 458 kts 168°
2026-05-05 22:20 5.70760 102.23655 40841 ft 460 kts 185°
2026-05-05 22:21 5.65469 102.22959 40852 ft 461 kts 188°
2026-05-05 22:21 5.59129 102.21889 40852 ft 462 kts 189°
2026-05-05 22:22 5.52784 102.20787 40851 ft 462 kts 188°
2026-05-05 22:22 5.46432 102.19703 40851 ft 463 kts 188°
2026-05-05 22:23 5.40081 102.18631 40860 ft 463 kts 188°
2026-05-05 22:23 5.33764 102.17568 40859 ft 463 kts 188°
2026-05-05 22:24 5.27410 102.16500 40858 ft 462 kts 188°
2026-05-05 22:24 5.21066 102.15434 40856 ft 463 kts 188°
2026-05-05 22:25 5.14711 102.14367 40859 ft 463 kts 188°
2026-05-05 22:25 5.08346 102.13298 40859 ft 463 kts 188°
2026-05-05 22:26 5.02032 102.12239 40856 ft 463 kts 188°
2026-05-05 22:26 4.95673 102.11171 40856 ft 463 kts 188°
2026-05-05 22:27 4.89319 102.10105 40860 ft 463 kts 188°
2026-05-05 22:27 4.82973 102.09040 40686 ft 459 kts 188°
2026-05-05 22:27 4.79844 102.08515 40440 ft 453 kts 188°
2026-05-05 22:28 4.76757 102.07997 40196 ft 447 kts 188°
2026-05-05 22:28 4.73707 102.07485 39951 ft 441 kts 188°
2026-05-05 22:28 4.70701 102.06981 39709 ft 436 kts 188°
2026-05-05 22:28 4.67722 102.06481 39471 ft 432 kts 188°
2026-05-05 22:29 4.64760 102.05985 39239 ft 432 kts 188°
2026-05-05 22:29 4.61791 102.05487 39010 ft 433 kts 187°
2026-05-05 22:29 4.58813 102.04988 38784 ft 434 kts 187°
2026-05-05 22:29 4.55826 102.04488 38558 ft 435 kts 187°
2026-05-05 22:30 4.52841 102.03987 38268 ft 433 kts 188°
2026-05-05 22:30 4.49875 102.03490 37826 ft 432 kts 188°
2026-05-05 22:30 4.46906 102.02993 37334 ft 433 kts 188°
2026-05-05 22:30 4.43970 102.02501 36852 ft 433 kts 188°
2026-05-05 22:31 4.40994 102.02003 36377 ft 433 kts 188°
2026-05-05 22:31 4.38012 102.01503 35882 ft 434 kts 189°
2026-05-05 22:31 4.35028 102.01003 35314 ft 437 kts 189°
2026-05-05 22:31 4.32021 102.00500 34734 ft 439 kts 189°
2026-05-05 22:32 4.28997 101.99993 34177 ft 441 kts 189°
2026-05-05 22:32 4.25963 101.99485 33569 ft 443 kts 189°
2026-05-05 22:32 4.22912 101.98974 32934 ft 444 kts 189°
2026-05-05 22:32 4.19858 101.98463 32315 ft 445 kts 189°
2026-05-05 22:33 4.16791 101.97949 31696 ft 447 kts 189°
2026-05-05 22:33 4.13726 101.97436 31072 ft 448 kts 189°
2026-05-05 22:33 4.10680 101.96926 30426 ft 451 kts 189°
2026-05-05 22:33 4.07577 101.96406 29744 ft 453 kts 189°
2026-05-05 22:34 4.04476 101.95887 29221 ft 449 kts 189°
2026-05-05 22:34 4.01407 101.95373 28764 ft 445 kts 189°
2026-05-05 22:34 3.98371 101.94865 28278 ft 441 kts 189°
2026-05-05 22:34 3.95354 101.94360 27793 ft 438 kts 189°
2026-05-05 22:35 3.92358 101.93859 27313 ft 434 kts 189°
2026-05-05 22:35 3.89384 101.93361 26826 ft 431 kts 188°
2026-05-05 22:35 3.86434 101.92867 26348 ft 428 kts 188°
2026-05-05 22:35 3.83502 101.92377 25885 ft 425 kts 188°
2026-05-05 22:36 3.80619 101.91894 25747 ft 414 kts 188°
2026-05-05 22:36 3.77816 101.91425 25610 ft 403 kts 188°
2026-05-05 22:36 3.75087 101.90968 25436 ft 393 kts 188°
2026-05-05 22:36 3.72447 101.90527 25260 ft 385 kts 188°
2026-05-05 22:37 3.69830 101.90089 25099 ft 376 kts 188°
2026-05-05 22:37 3.67290 101.89594 24917 ft 369 kts 194°
2026-05-05 22:37 3.64858 101.88859 24768 ft 361 kts 197°
2026-05-05 22:37 3.62504 101.88072 24614 ft 353 kts 197°
2026-05-05 22:38 3.60178 101.87284 24272 ft 352 kts 197°
2026-05-05 22:38 3.57863 101.86502 24011 ft 349 kts 197°
2026-05-05 22:38 3.55577 101.85731 23815 ft 344 kts 197°
2026-05-05 22:38 3.53311 101.84968 23608 ft 343 kts 197°
2026-05-05 22:39 3.51082 101.84218 23414 ft 342 kts 197°
2026-05-05 22:39 3.48798 101.83452 23192 ft 341 kts 197°
2026-05-05 22:39 3.46578 101.82707 22998 ft 340 kts 197°
2026-05-05 22:39 3.44337 101.81954 22812 ft 339 kts 197°
2026-05-05 22:40 3.42097 101.81202 22601 ft 338 kts 197°
2026-05-05 22:40 3.39863 101.80452 22400 ft 344 kts 197°
2026-05-05 22:40 3.37495 101.79660 22169 ft 372 kts 197°
2026-05-05 22:40 3.34968 101.78814 21931 ft 393 kts 197°
2026-05-05 22:41 3.32349 101.77935 21686 ft 398 kts 197°
2026-05-05 22:41 3.29704 101.77104 21432 ft 397 kts 190°
2026-05-05 22:41 3.27011 101.76986 21185 ft 390 kts 170°
2026-05-05 22:41 3.24465 101.77824 20944 ft 384 kts 149°
2026-05-05 22:42 3.22374 101.79463 20702 ft 381 kts 135°
2026-05-05 22:42 3.20508 101.81337 20475 ft 380 kts 134°
2026-05-05 22:42 3.18623 101.83194 20245 ft 380 kts 135°
2026-05-05 22:42 3.16701 101.85005 20015 ft 378 kts 136°
2026-05-05 22:43 3.14760 101.86776 19780 ft 377 kts 137°
2026-05-05 22:43 3.12810 101.88523 19539 ft 376 kts 137°
2026-05-05 22:43 3.10854 101.90256 19318 ft 374 kts 137°
2026-05-05 22:43 3.08903 101.91972 19092 ft 373 kts 137°
2026-05-05 22:44 3.06955 101.93681 18870 ft 371 kts 137°
2026-05-05 22:44 3.05011 101.95383 18643 ft 370 kts 137°
2026-05-05 22:44 3.03077 101.97074 18430 ft 369 kts 137°
2026-05-05 22:44 3.01149 101.98760 18205 ft 368 kts 137°
2026-05-05 22:45 2.99247 102.00423 17956 ft 366 kts 137°
2026-05-05 22:45 2.97323 102.02103 17695 ft 365 kts 137°
2026-05-05 22:45 2.95417 102.03768 17452 ft 362 kts 137°
2026-05-05 22:45 2.93523 102.05422 17199 ft 360 kts 137°
2026-05-05 22:46 2.91640 102.07067 16945 ft 359 kts 137°
2026-05-05 22:46 2.89762 102.08707 16699 ft 357 kts 137°
2026-05-05 22:46 2.87878 102.10322 16450 ft 357 kts 141°
2026-05-05 22:46 2.85765 102.11674 16212 ft 365 kts 150°
2026-05-05 22:47 2.83474 102.12785 15970 ft 367 kts 154°
2026-05-05 22:47 2.81139 102.13824 15724 ft 366 kts 155°
2026-05-05 22:47 2.78834 102.14821 15498 ft 365 kts 155°
2026-05-05 22:47 2.76506 102.15819 15263 ft 363 kts 155°
2026-05-05 22:48 2.74185 102.16809 15034 ft 362 kts 155°
2026-05-05 22:48 2.71864 102.17798 14794 ft 361 kts 155°
2026-05-05 22:48 2.69560 102.18778 14565 ft 360 kts 155°
2026-05-05 22:48 2.67263 102.19755 14347 ft 358 kts 155°
2026-05-05 22:49 2.64969 102.20730 14119 ft 357 kts 155°
2026-05-05 22:49 2.62688 102.21700 13896 ft 356 kts 155°
2026-05-05 22:49 2.60412 102.22667 13673 ft 355 kts 155°
2026-05-05 22:49 2.58145 102.23631 13430 ft 353 kts 155°
2026-05-05 22:50 2.55885 102.24591 13172 ft 352 kts 155°
2026-05-05 22:50 2.53656 102.25539 13001 ft 341 kts 155°
2026-05-05 22:50 2.51512 102.26448 12862 ft 328 kts 155°
2026-05-05 22:50 2.49449 102.27324 12731 ft 315 kts 155°
2026-05-05 22:51 2.47468 102.28165 12599 ft 304 kts 155°
2026-05-05 22:51 2.45558 102.28977 12468 ft 293 kts 155°
2026-05-05 22:51 2.43737 102.29751 12339 ft 283 kts 155°
2026-05-05 22:51 2.41935 102.30517 12132 ft 279 kts 155°
2026-05-05 22:52 2.40156 102.31274 11993 ft 277 kts 155°
2026-05-05 22:52 2.38379 102.32029 12006 ft 278 kts 156°
2026-05-05 22:52 2.36520 102.32563 11916 ft 280 kts 173°
2026-05-05 22:52 2.34582 102.32436 11683 ft 280 kts 188°
2026-05-05 22:53 2.32669 102.32055 11428 ft 281 kts 191°
2026-05-05 22:53 2.30789 102.31605 11069 ft 282 kts 197°
2026-05-05 22:53 2.29105 102.30615 10718 ft 284 kts 225°
2026-05-05 22:53 2.28175 102.28895 10392 ft 285 kts 258°
2026-05-05 22:54 2.28287 102.26933 10080 ft 285 kts 286°
2026-05-05 22:54 2.28971 102.25077 9779 ft 284 kts 291°
2026-05-05 22:54 2.29734 102.23261 9469 ft 282 kts 292°
2026-05-05 22:54 2.30482 102.21459 9135 ft 280 kts 291°
2026-05-05 22:55 2.31213 102.19660 8805 ft 278 kts 291°
2026-05-05 22:55 2.31928 102.17869 8472 ft 276 kts 291°
2026-05-05 22:55 2.32623 102.16111 8338 ft 268 kts 291°
2026-05-05 22:55 2.33293 102.14406 8210 ft 259 kts 291°
2026-05-05 22:56 2.33937 102.12760 8100 ft 250 kts 291°
2026-05-05 22:56 2.34560 102.11168 7995 ft 242 kts 291°
2026-05-05 22:56 2.35167 102.09612 7802 ft 238 kts 291°
2026-05-05 22:56 2.35767 102.08076 7580 ft 236 kts 291°
2026-05-05 22:57 2.36363 102.06547 7349 ft 235 kts 291°
2026-05-05 22:57 2.36956 102.05028 7106 ft 234 kts 291°
2026-05-05 22:57 2.37539 102.03534 6858 ft 233 kts 291°
2026-05-05 22:57 2.38129 102.02021 6629 ft 233 kts 291°
2026-05-05 22:58 2.38715 102.00518 6402 ft 232 kts 291°
2026-05-05 22:58 2.39300 101.99017 6174 ft 231 kts 291°
2026-05-05 22:58 2.39881 101.97527 5934 ft 230 kts 291°
2026-05-05 22:58 2.40463 101.96039 5695 ft 229 kts 292°
2026-05-05 22:59 2.41221 101.94647 5445 ft 228 kts 307°
2026-05-05 22:59 2.42225 101.93420 5230 ft 227 kts 311°
2026-05-05 22:59 2.43270 101.92248 5008 ft 226 kts 312°
2026-05-05 22:59 2.44322 101.91082 4771 ft 225 kts 312°
2026-05-05 23:00 2.46410 101.88757 4263 ft 225 kts 314°
2026-05-05 23:00 2.47593 101.87741 4027 ft 223 kts 324°
2026-05-05 23:00 2.48871 101.86862 3798 ft 222 kts 327°
2026-05-05 23:01 2.50142 101.86020 3582 ft 222 kts 327°
2026-05-05 23:01 2.51418 101.85168 3490 ft 217 kts 327°
2026-05-05 23:01 2.52628 101.84345 3492 ft 205 kts 326°
2026-05-05 23:01 2.53795 101.83546 3488 ft 202 kts 326°
2026-05-05 23:02 2.54956 101.82754 3485 ft 202 kts 326°
2026-05-05 23:02 2.56121 101.81966 3461 ft 202 kts 327°
2026-05-05 23:02 2.57292 101.81190 3256 ft 202 kts 327°
2026-05-05 23:02 2.58462 101.80412 2977 ft 203 kts 327°
2026-05-05 23:03 2.59640 101.79623 2670 ft 204 kts 327°
2026-05-05 23:03 2.60816 101.78835 2399 ft 203 kts 327°
2026-05-05 23:03 2.61989 101.78052 2153 ft 200 kts 327°
2026-05-05 23:03 2.63119 101.77295 1899 ft 190 kts 327°
2026-05-05 23:04 2.64188 101.76580 1649 ft 179 kts 327°
2026-05-05 23:04 2.65192 101.75908 1406 ft 168 kts 327°
2026-05-05 23:04 2.66118 101.75288 1215 ft 157 kts 327°
2026-05-05 23:04 2.66997 101.74693 1011 ft 147 kts 326°
2026-05-05 23:05 2.67822 101.74137 858 ft 141 kts 327°
2026-05-05 23:05 2.68637 101.73597 689 ft 140 kts 327°
2026-05-05 23:05 2.69454 101.73057 544 ft 140 kts 326°
2026-05-05 23:05 2.70263 101.72511 376 ft 141 kts 326°
2026-05-05 23:06 2.71075 101.71971 171 ft 139 kts 327°
2026-05-05 23:06 2.71868 101.71440 55 ft 128 kts 326°
2026-05-05 23:06 2.72448 101.71052 53 ft 73 kts 326°
2026-05-05 23:06 2.72804 101.70815 59 ft 56 kts 326°
2026-05-05 23:07 2.73101 101.70698 67 ft 28 kts 355°
2026-05-05 23:07 2.73250 101.70688 73 ft 20 kts 356°
2026-05-05 23:07 2.73384 101.70655 67 ft 20 kts 333°
2026-05-05 23:07 2.73505 101.70577 70 ft 21 kts 326°
2026-05-05 23:08 2.73629 101.70493 70 ft 22 kts 326°
2026-05-05 23:08 2.73761 101.70404 75 ft 24 kts 326°
2026-05-05 23:08 2.73902 101.70311 60 ft 24 kts 327°
2026-05-05 23:08 2.74049 101.70214 63 ft 26 kts 326°
2026-05-05 23:09 2.74179 101.70125 61 ft 21 kts 325°
2026-05-05 23:09 2.74302 101.70040 59 ft 21 kts 326°
2026-05-05 23:09 2.74378 101.70004 62 ft 10 kts
2026-05-05 23:09 2.74432 101.70050 61 ft 11 kts 56°
2026-05-05 23:10 2.74482 101.70126 63 ft 15 kts 56°
2026-05-05 23:10 2.74525 101.70190 60 ft 18 kts 56°
2026-05-05 23:10 2.74601 101.70301 62 ft 21 kts 55°
2026-05-05 23:10 2.74689 101.70431 60 ft 24 kts 57°
2026-05-05 23:11 2.74781 101.70573 67 ft 21 kts 56°
2026-05-05 23:11 2.74840 101.70659 63 ft 13 kts 52°
2026-05-05 23:11 2.74925 101.70661 62 ft 15 kts 327°
2026-05-05 23:11 2.75005 101.70608 63 ft 14 kts 327°
2026-05-05 23:12 2.75072 101.70552 61 ft 12 kts 296°
2026-05-05 23:12 2.75052 101.70479 61 ft 11 kts 238°
2026-05-05 23:12 2.75031 101.70447 62 ft 4 kts 238°
2026-05-05 23:12 2.75024 101.70410 65 ft 5 kts 288°
2026-05-05 23:13 2.75048 101.70384 65 ft 4 kts 321°
2026-05-05 23:13 2.75062 101.70375 68 ft 1 kts 326°
2026-05-05 23:13 2.75064 101.70374 68 ft 0 kts 326°
2026-05-05 23:14 2.75070 101.70370 70 ft 0 kts 327°
2026-05-05 23:14 2.75059 101.70377 67 ft 0 kts 327°